www.pogodaiklimat.ru

Погода и климат >> Архив погоды >> Норвегия >> Utsira Fyr


ПОГОДА в Utsira Fyr

  • Прогноз погоды в Utsira Fyr
  • Монитор погоды в Utsira Fyr
  • Климат города

АРХИВ ПОГОДЫ в Utsira Fyr

Время (UTC), дата Ветер
(напр.,м/с)
 
Видим.   Явления Облачность Т
(С)
Тd
(С)
f
(%)
Тe
(С)
Тes
(С)
Комфортность P
(гПа)
Po
(гПа)
Тmin
(С)
Tmax
(С)
R
(мм)
R24
(мм)
S
(см)
23 19.05 Ю 6
{8}
н/о н/о +9.3 +7.6 89 +6 +6 1023.5 1016.6
22 19.05 Ю 5
{6}
н/о н/о +9.4 +7.5 88 +6 +6 1023.6 1016.7
00 20.05 Ю 6
{8}
н/о н/о +9.1 +7.6 90 +5 +5 1023.5 1016.6
01 20.05 Ю 7
{9}
н/о н/о +9.1 +7.6 90 +5 +5 1023.3 1016.4
02 20.05 Ю 8
{10}
н/о н/о +9.2 +5.9 80 +5 +5 1023.1 1016.2
03 20.05 Ю 8
{10}
н/о н/о +9.3 +6.2 81 +5 +5 1023.1 1016.2
05 20.05 Ю 9
{11}
н/о н/о +9.8 +7.1 83 +5 +5 1023.4 1016.5
04 20.05 Ю 9
{11}
н/о н/о +9.5 +7.1 85 +5 +5 1023.3 1016.4
06 20.05 Ю 9
{12}
50 км 3/0
[]
+10.1 +6.8 80 +6 +6 1023.8 1016.9 +9.1 +11.0
07 20.05 Ю 9
{12}
н/о н/о +10.7 +6.8 77 +7 +7 1024.1 1017.2
08 20.05 Ю 9
{12}
н/о н/о +11.1 +6.5 73 +7 +7 1024.4 1017.5
09 20.05 Ю 10
{13}
50 км 9/0
[]
+11.2 +6.2 71 +7 +8 1024.6 1017.7
11 20.05 Ю 11
{14}
н/о н/о +10.5 +7.6 82 +6 +6 1024.5 1017.6
10 20.05 Ю 10
{13}
н/о н/о +11.2 +8.3 82 +7 +7 1024.6 1017.7
12 20.05 Ю 12
{15}
50 км 9/0
[]
+9.2 +7.5 89 +4 +4 1024.6 1017.7
13 20.05 Ю 11
{14}
н/о н/о +9.5 +8.0 90 +5 +5 1024.8 1017.9
14 20.05 Ю 11
{15}
н/о н/о +9.5 +8.1 91 +4 +4 1025.0 1018.1
15 20.05 Ю 10
{15}
10 км дымка 9/9 300 м
[St]
+9.6 +8.2 91 +5 +5 1025.1 1018.2
17 20.05 Ю 9
{12}
н/о н/о +8.9 +7.7 92 +4 +4 1024.5 1017.6
16 20.05 Ю 10
{14}
н/о н/о +9.2 +7.8 91 +4 +4 1024.8 1017.9
18 20.05 Ю 9
{15}
н/о н/о +8.5 +7.4 93 +4 +4 1024.4 1017.5 +8.4 +11.6
19 20.05 Ю 8
{11}
н/о н/о +8.4 +7.3 93 +4 +4 1024.4 1017.5
20 20.05 Ю 8
{10}
н/о н/о +8.1 +7.2 94 +3 +3 1024.9 1017.9
21 20.05 Ю 8
{10}
700 м туман ?/? +8.2 +7.3 94 +3 +3 1024.8 1017.9 0.3
23 20.05 Ю 8
{11}
н/о н/о +8.7 +8.0 95 +4 +4 1024.4 1017.5
22 20.05 Ю 8
{11}
н/о н/о +8.0 +7.3 95 +3 +3 1024.6 1017.6 0.1
00 21.05 Ю 8
{11}
н/о н/о +9.4 +8.6 95 +5 +5 1024.4 1017.5
01 21.05 Ю 9
{11}
н/о н/о +9.9 +9.0 94 +5 +5 1024.5 1017.6
02 21.05 Ю 9
{12}
н/о н/о +10.3 +8.4 88 +6 +6 1024.6 1017.7
03 21.05 Ю 9
{12}
н/о н/о +10.4 +8.7 89 +6 +6 1024.6 1017.7
05 21.05 Ю 7 н/о н/о +10.9 +8.5 85 +7 +7 1024.6 1017.7
04 21.05 Ю 7 н/о н/о +10.3 +8.7 90 +7 +7 1024.7 1017.8
06 21.05 Ю 8
{12}
30 км {туман} 6/0
[Cs]
+12.2 +6.3 67 +9 +10 1024.4 1017.5 +8.0 0.4
07 21.05 Ю 7 н/о н/о +12.5 +7.0 69 +10 +10 1024.1 1017.3
08 21.05 Ю 7 н/о н/о +13.3 +8.0 70 +11 +11 1024.1 1017.3
09 21.05 Ю 8 40 км 3/0
[Cs]
+13.2 +8.7 74 +10 +12 1024.3 1017.5
11 21.05 Ю 10 н/о н/о +13.4 +9.3 76 +10 +10 1024.0 1017.2
10 21.05 Ю 8 н/о н/о +13.5 +9.2 75 +11 +11 1024.2 1017.4
12 21.05 Ю 9
{13}
9000 м дымка 4/0
[]
+13.5 +9.2 75 +11 +12 1023.8 1017.0
13 21.05 ЮЗ 9
{13}
н/о н/о +13.4 +9.5 77 +11 +11 1023.2 1016.4
14 21.05 ЮЗ 9
{11}
н/о н/о +13.9 +9.4 74 +11 +11 1022.8 1016.0
15 21.05 ЮЗ 11
{15}
15 км 9/0
[]
+13.7 +5.9 59 +11 +11 1022.2 1015.4
17 21.05 ЮЗ 11
{14}
н/о н/о +12.2 +6.3 67 +9 +9 1021.6 1014.8
16 21.05 ЮЗ 12
{16}
н/о н/о +12.6 +6.4 66 +9 +9 1021.8 1015.0
18 21.05 ЮЗ 8
{16}
40 км 9/0
[]
+11.8 +6.9 72 +9 +9 1021.6 1014.8 +11.8 +14.2
19 21.05 ЮЗ 9
{12}
н/о н/о +11.6 +7.5 76 +8 +8 1021.6 1014.8
20 21.05 ЮЗ 5
{11}
н/о н/о +11.2 +7.7 79 +9 +9 1022.4 1015.5
21 21.05 Ю 5
{7}
15 км 9/0
[]
+11.0 +8.1 82 +8 +8 1022.5 1015.6
23 21.05 ЮВ 4
{7}
н/о н/о +10.8 +7.9 82 +8 +8 1022.7 1015.8
22 21.05 Ю 4
{7}
н/о н/о +11.1 +8.2 82 +9 +9 1022.8 1015.9
00 22.05 Ю 4
{12}
н/о н/о +10.6 +8.0 84 +8 +8 1022.5 1015.6
01 22.05 Ю 3
{4}
н/о н/о +10.5 +8.1 85 +8 +8 1022.6 1015.7
02 22.05 Ю 3
{5}
н/о н/о +10.3 +8.1 86 +8 +8 1022.4 1015.5
03 22.05 ЮВ 2
{4}
н/о н/о +9.8 +7.2 84 +8 +8 1022.2 1015.3
05 22.05 ЮВ 2 н/о н/о +10.6 +6.7 77 +9 +9 1021.8 1014.9
04 22.05 В 3 н/о н/о +10.0 +6.9 81 +8 +8 1022.0 1015.1
06 22.05 СВ 1
{5}
6000 м дымка 9/0 2000 м
[Ac cast Cs]
+11.8 +8.1 78 +12 +14 1021.8 1015.0 +9.8
07 22.05
{5}
н/о н/о +11.3 +8.7 84 1022.2 1015.3
08 22.05
{7}
н/о н/о +11.8 +9.4 85 1022.1 1015.3
09 22.05 С 5
{7}
12 км 9/0
[]
+11.3 +9.1 86 +9 +11 1022.1 1015.2
11 22.05 С 7
{9}
н/о н/о +11.9 +9.1 83 +9 +9 1021.7 1014.9
10 22.05 С 7
{8}
н/о н/о +11.8 +9.4 85 +9 +9 1021.7 1014.9
12 22.05 С 6
{9}
8000 м дымка 6/0
[]
+12.3 +9.1 81 +10 +13 1021.9 1015.1
13 22.05 С 8
{9}
н/о н/о +12.6 +9.3 80 +10 +10 1021.9 1015.1
14 22.05 С 8
{10}
н/о н/о +12.2 +9.0 81 +9 +9 1022.0 1015.2
15 22.05 С 7
{9}
8000 м дымка 5/0
[]
+11.7 +8.6 81 +9 +10 1022.0 1015.2
17 22.05 С 7
{9}
н/о н/о +11.2 +8.8 85 +8 +8 1021.7 1014.8
16 22.05 С 6
{9}
н/о н/о +11.5 +8.7 83 +9 +9 1021.7 1014.9
18 22.05 С 7
{10}
12 км 3/0
[]
+10.5 +8.4 87 +7 +7 1021.6 1014.7 +10.5 +12.7
19 22.05 С 8
{9}
н/о н/о +10.1 +8.4 89 +6 +6 1021.4 1014.5
20 22.05 С 8
{9}
н/о н/о +9.8 +8.2 90 +6 +6 1021.7 1014.8
21 22.05 С 7
{8}
6000 м дымка 4/4 300 м
[St]
+9.6 +8.2 91 +6 +6 1021.9 1015.0
23 22.05 С 6
{8}
н/о н/о +9.5 +8.3 92 +6 +6 1022.2 1015.3
22 22.05 С 6
{8}
н/о н/о +9.6 +8.4 92 +6 +6 1022.2 1015.3
00 23.05 СЗ 8
{9}
н/о н/о +9.4 +8.2 92 +5 +5 1022.6 1015.7
01 23.05 С 7
{9}
н/о н/о +9.2 +8.0 92 +5 +5 1022.6 1015.7
02 23.05 С 5
{8}
н/о н/о +9.2 +8.0 92 +6 +6 1022.8 1015.9
03 23.05 С 5
{7}
н/о н/о +8.9 +7.7 92 +5 +5 1023.0 1016.1
05 23.05 СЗ 5 н/о н/о +8.6 +7.4 92 +5 +5 1024.0 1017.1
04 23.05 СЗ 6 н/о н/о +8.5 +7.3 92 +4 +4 1023.6 1016.7
06 23.05 СЗ 5
{9}
8000 м дымка 10/10 300 м
[St]
+8.7 +7.3 91 +5 +5 1024.5 1017.6 +8.5
07 23.05 С 4 н/о н/о +9.2 +7.5 89 +6 +6 1025.2 1018.3
08 23.05 СЗ 5 н/о н/о +9.6 +7.5 87 +6 +6 1025.9 1019.0
09 23.05 СЗ 4 10 км 10/10 300 м
[St]
+10.0 +7.4 84 +7 +7 1026.2 1019.3
11 23.05 СЗ 4
{7}
н/о н/о +11.4 +7.1 75 +9 +9 1027.2 1020.3
10 23.05 СЗ 5
{7}
н/о н/о +11.0 +7.5 79 +8 +8 1026.5 1019.6
12 23.05 СЗ 5
{7}
25 км 5/5 600 м
[St Ci fib]
+11.6 +7.3 75 +9 +13 1027.4 1020.5
13 23.05 СЗ 5
{7}
н/о н/о +11.9 +7.6 75 +9 +9 1027.8 1020.9
14 23.05 СЗ 5
{8}
н/о н/о +11.5 +7.0 74 +9 +9 1028.1 1021.2
15 23.05 СЗ 5
{7}
10 км 8/8 600 м
[Sc Ci fib]
+11.4 +7.1 75 +9 +10 1028.1 1021.2
17 23.05 З 5
{7}
н/о н/о +10.3 +6.6 78 +7 +7 1028.2 1021.3
16 23.05 СЗ 5
{7}
н/о н/о +10.8 +6.8 76 +8 +8 1028.2 1021.3
18 23.05 СЗ 4
{8}
12 км 9/9 300 м
[St]
+9.9 +6.4 79 +7 +7 1028.4 1021.5 +8.7 +12.0
19 23.05 СЗ 5
{7}
н/о н/о +9.3 +6.0 80 +6 +6 1028.7 1021.8
20 23.05 СЗ 3
{6}
н/о н/о +9.1 +6.2 82 +7 +7 1029.2 1022.2
21 23.05 С 2
{5}
10 км 9/9 300 м
[St]
+8.9 +6.2 83 +7 +7 1029.2 1022.2
23 23.05 СЗ 2
{5}
н/о н/о +8.6 +6.2 85 +7 +7 1029.5 1022.5
22 23.05 СЗ 2
{4}
н/о н/о +8.9 +6.4 84 +7 +7 1029.4 1022.4
00 24.05 СЗ 2
{7}
н/о н/о +8.7 +6.3 85 +7 +7 1029.6 1022.6
01 24.05 СЗ 3
{4}
н/о н/о +8.7 +6.5 86 +6 +6 1029.7 1022.7
02 24.05 С 2
{5}
н/о н/о +8.6 +6.4 86 +7 +7 1029.7 1022.7
03 24.05 С 2
{5}
н/о н/о +8.3 +6.3 87 +6 +6 1029.8 1022.8
05 24.05 С 2 н/о н/о +8.4 +6.5 88 +6 +6 1030.0 1023.0
04 24.05 С 3
{4}
н/о н/о +8.3 +6.4 88 +6 +6 1029.7 1022.7
06 24.05 С 3
{5}
10 км 10/10 300 м
[St]
+8.5 +6.6 88 +6 +6 1030.1 1023.1 +8.2
07 24.05 С 3 н/о н/о +8.8 +6.8 87 +6 +6 1030.1 1023.1
08 24.05 СВ 4 н/о н/о +9.3 +6.9 85 +6 +6 1030.2 1023.2
09 24.05 С 4 20 км 3/3 600 м
[St Ci fib]
+9.9 +7.2 83 +7 +12 1030.1 1023.2
11 24.05 СВ 3
{5}
н/о н/о +11.5 +8.2 80 +10 +10 1029.9 1023.0
10 24.05 С 4 н/о н/о +10.5 +7.4 81 +8 +8 1030.0 1023.1
12 24.05 С 4
{6}
25 км ясно +11.8 +8.5 80 +10 +19 1029.6 1022.7
13 24.05
{5}
н/о н/о +12.0 +8.9 81 1029.3 1022.4
14 24.05 С 4
{6}
н/о н/о +12.7 +9.5 81 +11 +11 1028.9 1022.0
15 24.05 С 4
{5}
25 км 1/0
[]
+12.3 +9.1 81 +10 +16 1028.7 1021.8
17 24.05 С 4
{5}
н/о н/о +12.2 +8.3 77 +10 +10 1028.2 1021.3
16 24.05 С 4
{5}
н/о н/о +12.7 +9.4 80 +11 +11 1028.5 1021.6
18 24.05 СВ 4
{6}
30 км ясно +11.9 +8.4 79 +10 +11 1028.0 1021.1 +8.4 +12.7
19 24.05 СВ 4
{6}
н/о н/о +11.7 +5.4 65 +10 +10 1028.0 1021.1
20 24.05 СВ 4
{5}
н/о н/о +11.3 +5.6 68 +9 +9 1027.9 1021.0
21 24.05 СВ 4
{5}
25 км ясно +11.4 +6.1 70 +9 +9 1028.0 1021.1
23 24.05 СВ 3
{4}
н/о н/о +11.4 +7.1 75 +10 +10 1028.0 1021.1
22 24.05 СВ 4
{5}
н/о н/о +11.5 +6.6 72 +9 +9 1028.1 1021.2
00 25.05 СВ 3
{6}
н/о н/о +11.3 +7.8 79 +10 +10 1027.8 1020.9
01 25.05 СВ 4
{4}
н/о н/о +11.3 +8.5 83 +9 +9 1027.7 1020.8
02 25.05 СВ 5
{5}
н/о н/о +12.4 +7.5 72 +10 +10 1027.7 1020.8
03 25.05 СВ 4
{5}
н/о н/о +11.5 +8.5 82 +9 +9 1027.5 1020.6
05 25.05 СВ 5 н/о н/о +12.3 +9.5 83 +10 +10 1027.7 1020.8
04 25.05 СВ 5
{5}
н/о н/о +11.9 +8.8 81 +9 +9 1027.6 1020.7
06 25.05 СВ 4
{6}
25 км 3/0 2000 м
[Ac trans]
+13.9 +9.4 74 +12 +14 1028.0 1021.2 +11.2
07 25.05 СВ 3 н/о н/о +14.8 +9.2 69 +14 +14 1028.1 1021.3
08 25.05 В 4 н/о н/о +17.3 +9.0 58 +17 +17 1028.5 1021.7
09 25.05 СВ 5 15 км 3/0 2000 м
[Ac trans Cs]
+18.3 +8.6 53 +18 +23 1028.5 1021.8
11 25.05 С 5
{6}
н/о н/о +18.4 +8.1 51 +18 +18 1028.7 1022.0
10 25.05 СВ 4 н/о н/о +17.0 +9.2 60 +17 +17 1028.7 1021.9
12 25.05 СВ 5
{8}
20 км 4/0
[]
+17.5 +9.4 59 +17 +23 1028.7 1021.9
13 25.05 СВ 7
{10}
н/о н/о +17.8 +8.7 55 +17 +17 1028.5 1021.8
14 25.05 С 7
{11}
н/о н/о +17.0 +8.4 57 +16 +16 1028.5 1021.7
15 25.05 С 7
{11}
25 км 4/0
[]
+15.6 +8.8 64 +14 +16 1028.6 1021.8
17 25.05 С 8
{10}
н/о н/о +15.5 +8.0 61 +14 +14 1028.3 1021.5
16 25.05 СВ 8
{10}
н/о н/о +15.6 +8.8 64 +14 +14 1028.3 1021.5
18 25.05 С 7
{11}
30 км 1/0
[]
+14.7 +8.4 66 +13 +13 1028.3 1021.5 +13.8 +18.9
19 25.05 С 9
{11}
н/о н/о +14.2 +8.2 67 +12 +12 1028.3 1021.5
20 25.05 С 10
{12}
н/о н/о +14.0 +8.0 67 +11 +11 1028.5 1021.7
21 25.05 СВ 8
{11}
30 км 4/0
[]
+13.6 +8.2 70 +11 +11 1028.7 1021.9
23 25.05 СВ 8
{11}
н/о н/о +13.0 +8.3 73 +10 +10 1028.9 1022.0
22 25.05 СВ 8
{12}
н/о н/о +13.3 +8.2 71 +11 +11 1028.7 1021.9
00 26.05 С 7
{12}
н/о н/о +12.4 +8.7 78 +10 +10 1029.0 1022.1
01 26.05 С 7
{10}
н/о н/о +12.0 +8.9 81 +9 +9 1028.9 1022.0
02 26.05 СВ 6
{9}
н/о н/о +11.7 +9.1 84 +9 +9 1028.8 1021.9
03 26.05 С 7
{8}
н/о н/о +11.6 +9.2 85 +8 +8 1028.9 1022.0
05 26.05 С 10 н/о н/о +11.8 +9.5 86 +8 +8 1029.3 1022.4
04 26.05 С 7
{9}
н/о н/о +11.7 +9.4 86 +9 +9 1029.0 1022.1
06 26.05 С 9
{13}
15 км 1/0
[Ci fib]
+12.0 +9.6 85 +8 +9 1029.4 1022.5 +11.6
07 26.05 С 8 н/о н/о +12.5 +9.9 84 +9 +9 1029.5 1022.6
08 26.05 С 7 н/о н/о +13.0 +10.2 83 +10 +10 1029.6 1022.7
09 26.05 С 7 10 км 1/0
[Ci fib]
+13.3 +10.3 82 +11 +14 1029.7 1022.8
11 26.05 С 7 н/о н/о +13.6 +10.2 80 +11 +11 1029.7 1022.8
10 26.05 С 8 н/о н/о +13.3 +10.1 81 +11 +11 1029.9 1023.0
12 26.05
{11}
7000 м дымка ясно +13.7 +10.1 79 1029.6 1022.8
13 26.05 С 8
{11}
н/о н/о +13.7 +10.1 79 +11 +11 1029.7 1022.9
14 26.05
{10}
н/о н/о +13.7 +10.3 80 1029.3 1022.5
15 26.05 С 8
{10}
9000 м дымка 1/0
[]
+13.8 +10.2 79 +11 +13 1028.9 1022.1
17 26.05 С 8
{10}
н/о н/о +13.0 +10.0 82 +10 +10 1028.6 1021.7
16 26.05 С 8
{10}
н/о н/о +13.6 +10.0 79 +11 +11 1028.6 1021.8
18 26.05 С 8
{11}
8000 м дымка 1/0
[]
+12.4 +10.0 85 +9 +10 1028.5 1021.6 +12.0 +14.0
19 26.05 С 7
{9}
н/о н/о +12.0 +9.9 87 +9 +9 1028.4 1021.5
20 26.05 С 7
{9}
н/о н/о +11.5 +9.8 89 +8 +8 1028.4 1021.5
21 26.05 С 7
{9}
8000 м дымка 4/0
[]
+11.2 +9.6 90 +8 +8 1028.4 1021.5
22 26.05 С 7
{9}
н/о н/о +11.1 +9.7 91 +8 +8 1028.2 1021.3

 

Местоположение метеостанции Utsira Fyr (Норвегия): широта 59.31 долгота 4.88 высота над уровнем моря 55 м.

В архиве по умолчанию представлена погода в Utsira Fyr за последнюю неделю. Архивные данные за месяц целиком и за предыдущие месяцы, начиная с января 2011 года, Вы можете получить, выбрав интересующий диапазон дат из раскрывающегося списка и нажав кнопку "Ввод!".


*Определитесь, кто Вы:
робот инопланетянин человек

Внимание! Время в таблицах - всемирное. Для получения местного времени необходимо прибавить поправку, которая в Utsira Fyr равна 1 ч.

Смотрите также архив погоды в соседних городах и на ближайших метеорологических станциях:

Погода в Rovaer (Норвегия) (18 км)
Погода в Haugesund Lufthavn (Норвегия) (19 км)
Погода в Kvitsoy (Норвегия) (41 км)
Погода в Vats I Vindafjord (Норвегия) (52 км)
Погода в Stavanger (Норвегия) (62 км)
Погода в Stavanger Lufthavn (Норвегия) (65 км)
Погода в Fister-Sigmundstad (Норвегия) (67 км)
Погода в Slatteroy Fyr (Норвегия) (68 км)
Погода в Saerheim (Норвегия) (75 км)
Погода в Liarvatn (Норвегия) (76 км)

Пояснения к столбцам:

Ветер - указаны скорость ветра в м/с - средняя за 10 мин, порывы в срок и между сроками (в фигурных скобках) и направление, откуда дует ветер: С - северный, СВ - северо-восточный, В - восточный, ЮВ - юго-восточный, Ю - южный, ЮЗ - юго-западный, З - западный, СЗ - северо-западный.
Видимость - горизонтальная дальность видимости в метрах или километрах. При видимости от 1 до 10 км при отсутствии осадков обычно наблюдается дымка, при ухудшении видимости до 1 км и менее - туман. В сухую погоду видимость может ухудшаться дымом, пылью или мглою.
Явления - указаны атмосферные явления, наблюдавшиеся в срок или в последний час перед сроком; фигурными скобками обозначены явления, наблюдавшиеся между сроками (за 1-3 часа до срока); квадратными скобками обозначены град или гололедные отложения с указанием их диаметра в мм.
Облачность - указаны через наклонную черту общая и нижняя облачность в баллах и высота нижней границы облаков в метрах; квадратными скобками обозначены формы облаков: Ci - перистые, Cs - перисто-слоистые, Cc - перисто-кучевые, Ac - высококучевые, As - высокослоистые, Sc - слоисто-кучевые, Ns - слоисто-дождевые, Cu - кучевые, Cb - кучево-дождевые. Подробнее классификацию облаков см. в Атласе облаков (PDF).
T - Температура воздуха - температура, измеренная на высоте 2 м над землей.
Td - Температура точки росы - температура, при понижении до которой содержащийся в воздухе водяной пар достигнет насыщения.
f - Относительная влажность воздуха - влажноcть воздуха, измеренная на высоте 2 м над землей.
Te - Эффективная температура - температура, которую ощущает одетый по сезону человек в тени. Характеристика душности погоды. При расчете учитывается влияние влажности воздуха и скорости ветра на теплоощущения человека.
Tes - Эффективная температура на солнце - температура, которую ощущает человек, с поправкой на солнечный нагрев. Характеристика знойности погоды. Зависит от высоты солнца над горизонтом, облачности и скорости ветра. Ночью, в пасмурную погоду, а также при ветре 12 м/с и более поправка равна нулю.
P - Атмосферное давление - приведенное к уровню моря атмосферное давление.
Po - Атмосферное давление - измеренное на уровне метеостанции атмосферное давление.
Tmin - Минимальная температура - минимум температуры воздуха на высоте 2 м над землей.
Tmax - Максимальная температура - максимум температуры воздуха на высоте 2 м над землей.
R - Количество осадков - Количество выпавших осадков за период времени, мм. При наведении курсора мыши на число - период времени, за который выпало указанное количество осадков.
R24 - Количество осадков - Количество выпавших осадков за 24 часа, мм.
S - Снежный покров - Высота снежного покрова, см. При наведении курсора мыши на число - состояние снежного покрова и степень покрытия местности в баллах.